Weather in Kumushkon

Uzbekistan     41°19′05″N   69°50′03″E
temp.,
°C
wind,
m/s
gust,
m/s
humid.,
%
clouds,
%
prec.,
mm/h
press.,
hPa
HPBL,
m
26 february, fri
fri2623:00−15ese223322 0.0 104120
02:00−15ese222997 0.0 104020
05:00−15ese222863 0.0 103820
08:00−13ese223632 0.0 103821
11:00−8w115329 0.0 1035134
14:00−7nw226898 0.0 1032240
17:00−9sw018699 0.0 103221
20:00−10ese2256100 0.0 103221
27 february, sat
sat2723:00−8ese1145100 0.0 103021
02:00−7e1142100 0.0 102821
05:00−7ne1144100 0.0 102921
08:00−5ese1258100 0.1 102922
11:00−3s3468100 0.2 10301063
14:00−2sse3470100 0.2 1029790
17:00−3ese336669 0.2 103037
20:00−5ese44540 0.0 103225
28 february, sun
sun2823:00−4ese33510 0.0 103122
02:00−3e33490 0.0 103022
05:00−3e33460 0.0 102822
08:00−2ese22480 0.0 102722
11:00+2e01980 0.0 102428
14:00+3nne01960 0.0 102235
17:00+3ese11650 0.0 102122
20:00+1ese22380 0.0 102222
1 march, mon
mon123:00+1e22335 0.0 102222
02:00+2ese223384 0.0 102122
05:00+3e223192 0.0 102122
08:00+4ese2232100 0.0 102122
11:00+7ese1273100 0.0 102023
14:00+9e117429 0.0 1020119
17:00+7e334215 0.0 101922
20:00+6ese44290 0.0 102223
2 march, tue
tue223:00+6e44320 0.0 102224
02:00+6e44350 0.0 102224
05:00+5ese33350 0.0 102223
08:00+6ese334033 0.0 102323
11:00+9e115767 0.0 102299
14:00+10nne125499 0.0 1021172
17:00+7ne1260100 0.0 102133
20:00+6e2251100 0.0 102223